Home   Weather   Odessa   Past weeks

Flag for USA Past Weather in Odessa, Texas, USA — Yesterday and Last 2 Weeks

Now
63 °F

Scattered clouds.


Feels Like: 63 °F
Forecast: 59 / 72 °F
Wind: 17 mph from North

Location: Odessa-Schlemeyer Field

Current Time: Apr 26, 2017 at 12:49:39 pm

Latest Report: Apr 26, 2017 at 11:53 am


Visibility: 10 mi

Pressure: 29.76 "Hg (26.82 "Hg at 882m altitude)

Humidity: 40%

Dew Point: 38 °F

Location of OdessaLocation

Past Weather in Odessa — Graph

°F

Odessa Temperature Yesterday

Maximum temperature yesterday: 92 °F (at 3:53 pm)
Minimum temperature yesterday: 62 °F (at 6:53 am)
Average temperature yesterday: 78 °F

High & Low Weather Summary for the Past Weeks

 TemperatureHumidityPressure
High95 °F (Apr 24, 5:53 pm)97% (Apr 13, 12:08 am)30.24 "Hg (Apr 13, 12:08 am)
Low44 °F (Apr 23, 6:53 am)8% (Apr 25, 4:53 pm)29.33 "Hg (Apr 25, 6:53 pm)
Average70 °F54%29.87 "Hg
* Reported Apr 11 10:35 am — Apr 26 10:53 am, Odessa, Weather by CustomWeather, © 2017

Note: Actual official high and low records may vary slightly from our data, if they occured in-between our weather recording intervals... More about our weather records

Advertising

Odessa Weather History for the Previous 24 Hours

Scroll right to see more
 ConditionsComfort  
Time TempWeatherWind HumidityBarometerVisibility
10:53 am
Wed, Apr 26
63 °FSunny.29 mph40%29.71 "Hg10 mi
9:53 am64 °FSunny.N/A34%29.67 "Hg10 mi
8:53 am63 °FSunny.29 mph27%29.63 "Hg10 mi
7:53 am59 °FSunny.20 mph33%29.61 "Hg10 mi
6:53 am57 °FPassing clouds.9 mph39%29.57 "Hg10 mi
5:53 am59 °FClear.13 mph38%29.55 "Hg10 mi
4:53 am59 °FClear.9 mph42%29.53 "Hg10 mi
3:53 am61 °FClear.8 mph42%29.52 "Hg10 mi
2:53 am64 °FClear.13 mph40%29.50 "Hg10 mi
1:53 am68 °FClear.23 mph36%29.48 "Hg10 mi
1:24 am72 °FClear.24 mph28%29.60 "Hg10 mi
12:53 am77 °FPassing clouds.16 mph19%29.39 "Hg10 mi
11:53 pm
Tue, Apr 25
78 °FPassing clouds.8 mph16%29.39 "Hg10 mi
10:53 pm80 °FClear.13 mph15%29.36 "Hg10 mi
9:53 pm78 °FPassing clouds.5 mph17%29.35 "Hg10 mi
8:53 pm82 °FOvercast.10 mph14%29.34 "Hg10 mi
7:53 pm86 °FOvercast.21 mph12%29.34 "Hg8 mi
6:53 pm89 °FOvercast.17 mph11%29.33 "Hg7 mi
5:53 pm91 °FSunny.25 mph10%29.33 "Hg10 mi
4:53 pm92 °FSunny.28 mph8%29.34 "Hg9 mi
3:53 pm92 °FSunny.20 mph9%29.36 "Hg10 mi
2:53 pm90 °FSunny.16 mph10%29.39 "Hg10 mi
1:53 pm86 °FSunny.21 mph12%29.42 "Hg10 mi
12:53 pm87 °FSunny.24 mph13%29.45 "Hg10 mi
Weather by CustomWeather, © 2017

See weather overviewHow to use our weather pages